QPF
0.03 0.03 0.03 0.04 0.03 0.03 0.03 0.04 0.04 0.04 0.03 0.03 0.05 0.06 0.06 0.09 0.08 0.07 0.08 0.11 0.13 0.12 0.10 0.10 0.09 0.06 0.04 0.04 0.05 0.08 0.11 0.15 0.14 0.09 0.06 0.05 0.05 0.05
0.03 0.03 0.03 0.03 0.03 0.02 0.02 0.03 0.03 0.04 0.04 0.03 0.03 0.04 0.05 0.06 0.05 0.03 0.04 0.05 0.07 0.09 0.11 0.12 0.12 0.10 0.06 0.05 0.04 0.05 0.07 0.11 0.16 0.13 0.09 0.07 0.06 0.06
0.04 0.04 0.03 0.02 0.03 0.02 0.02 0.03 0.03 0.04 0.04 0.03 0.03 0.03 0.04 0.05 0.05 0.04 0.03 0.03 0.04 0.07 0.10 0.12 0.12 0.13 0.09 0.06 0.04 0.04 0.05 0.08 0.12 0.14 0.11 0.08 0.08 0.07
0.04 0.05 0.04 0.04 0.04 0.03 0.03 0.03 0.03 0.03 0.04 0.04 0.03 0.03 0.03 0.04 0.05 0.05 0.05 0.05 0.04 0.06 0.09 0.13 0.12 0.13 0.12 0.08 0.05 0.04 0.04 0.05 0.07 0.09 0.09 0.08 0.08 0.07
0.05 0.05 0.05 0.05 0.05 0.04 0.03 0.03 0.03 0.03 0.04 0.04 0.03 0.03 0.03 0.03 0.05 0.06 0.05 0.06 0.06 0.07 0.09 0.11 0.14 0.13 0.12 0.09 0.06 0.05 0.04 0.04 0.04 0.05 0.06 0.06 0.06 0.06
0.07 0.07 0.06 0.05 0.06 0.05 0.05 0.04 0.04 0.04 0.04 0.04 0.04 0.04 0.04 0.04 0.04 0.05 0.06 0.07 0.07 0.08 0.09 0.10 0.11 0.13 0.12 0.09 0.07 0.05 0.04 0.04 0.03 0.03 0.04 0.05 0.05 0.05
0.06 0.06 0.06 0.06 0.06 0.06 0.05 0.05 0.04 0.04 0.04 0.04 0.05 0.04 0.04 0.05 0.05 0.05 0.05 0.06 0.08 0.08 0.09 0.09 0.09 0.08 0.08 0.07 0.06 0.05 0.04 0.04 0.03 0.03 0.03 0.03 0.03 0.04
0.05 0.05 0.05 0.05 0.05 0.06 0.06 0.06 0.06 0.06 0.05 0.05 0.05 0.05 0.05 0.05 0.04 0.04 0.05 0.06 0.07 0.08 0.08 0.09 0.08 0.07 0.06 0.05 0.05 0.05 0.05 0.04 0.03 0.03 0.02 0.03 0.03 0.04
0.04 0.04 0.04 0.04 0.04 0.05 0.05 0.06 0.05 0.06 0.07 0.06 0.06 0.06 0.05 0.06 0.05 0.05 0.05 0.05 0.06 0.06 0.07 0.08 0.08 0.07 0.06 0.05 0.06 0.05 0.05 0.04 0.03 0.03 0.03 0.03 0.03 0.04
0.05 0.05 0.05 0.05 0.04 0.05 0.05 0.05 0.05 0.05 0.05 0.06 0.06 0.06 0.06 0.05 0.06 0.06 0.06 0.06 0.07 0.07 0.07 0.08 0.07 0.07 0.06 0.05 0.05 0.04 0.03 0.03 0.03 0.03 0.03 0.03 0.04 0.05
0.09 0.08 0.06 0.05 0.05 0.05 0.05 0.04 0.04 0.04 0.05 0.06 0.06 0.07 0.07 0.06 0.07 0.07 0.08 0.08 0.08 0.07 0.07 0.07 0.06 0.05 0.05 0.05 0.04 0.04 0.03 0.03 0.03 0.03 0.03 0.03 0.04 0.05
0.10 0.09 0.07 0.05 0.05 0.05 0.05 0.05 0.05 0.05 0.05 0.05 0.06 0.06 0.06 0.05 0.06 0.06 0.07 0.07 0.07 0.06 0.05 0.05 0.05 0.05 0.06 0.06 0.05 0.04 0.03 0.02 0.02 0.02 0.03 0.04 0.04 0.04
0.08 0.08 0.07 0.06 0.05 0.05 0.05 0.05 0.05 0.04 0.04 0.04 0.05 0.05 0.05 0.05 0.05 0.05 0.05 0.06 0.06 0.06 0.05 0.05 0.05 0.04 0.06 0.06 0.05 0.04 0.03 0.02 0.02 0.03 0.04 0.04 0.04 0.04
0.06 0.06 0.06 0.06 0.05 0.05 0.05 0.05 0.04 0.04 0.04 0.04 0.04 0.05 0.05 0.05 0.05 0.05 0.05 0.05 0.05 0.06 0.06 0.06 0.05 0.04 0.04 0.05 0.05 0.05 0.04 0.03 0.02 0.03 0.04 0.06 0.06 0.06
0.04 0.05 0.05 0.05 0.04 0.04 0.05 0.05 0.04 0.03 0.03 0.04 0.05 0.05 0.05 0.05 0.06 0.05 0.05 0.06 0.07 0.07 0.07 0.07 0.06 0.05 0.05 0.04 0.04 0.04 0.04 0.04 0.03 0.03 0.04 0.05 0.05 0.07
0.04 0.04 0.04 0.04 0.04 0.04 0.04 0.04 0.04 0.03 0.03 0.04 0.04 0.04 0.05 0.05 0.06 0.06 0.05 0.05 0.05 0.06 0.06 0.05 0.05 0.05 0.06 0.04 0.03 0.03 0.03 0.04 0.04 0.04 0.04 0.05 0.05 0.06
0.04 0.03 0.03 0.03 0.03 0.03 0.03 0.04 0.04 0.04 0.04 0.03 0.04 0.04 0.04 0.05 0.04 0.04 0.04 0.04 0.04 0.05 0.06 0.06 0.06 0.06 0.06 0.05 0.04 0.03 0.03 0.04 0.05 0.04 0.04 0.04 0.05 0.05
0.05 0.04 0.04 0.03 0.03 0.03 0.03 0.03 0.04 0.04 0.05 0.04 0.04 0.04 0.04 0.04 0.03 0.04 0.04 0.04 0.04 0.04 0.04 0.05 0.06 0.06 0.06 0.06 0.06 0.04 0.04 0.05 0.05 0.05 0.04 0.04 0.04 0.04
0.05 0.04 0.04 0.04 0.04 0.04 0.03 0.04 0.04 0.04 0.04 0.05 0.05 0.04 0.04 0.03 0.03 0.03 0.04 0.04 0.04 0.04 0.04 0.04 0.04 0.05 0.06 0.06 0.06 0.06 0.05 0.05 0.05 0.05 0.06 0.05 0.04 0.04
0.05 0.05 0.04 0.04 0.04 0.04 0.04 0.04 0.04 0.03 0.03 0.04 0.04 0.05 0.05 0.04 0.04 0.03 0.03 0.04 0.05 0.04 0.04 0.04 0.04 0.04 0.05 0.05 0.06 0.06 0.06 0.06 0.05 0.06 0.07 0.07 0.06 0.05
0.04 0.04 0.04 0.04 0.04 0.04 0.04 0.04 0.04 0.03 0.03 0.03 0.03 0.04 0.05 0.05 0.04 0.03 0.03 0.04 0.04 0.04 0.04 0.04 0.04 0.04 0.05 0.06 0.07 0.08 0.08 0.07 0.05 0.05 0.06 0.06 0.05 0.05
0.04 0.04 0.04 0.04 0.04 0.04 0.04 0.04 0.03 0.03 0.02 0.03 0.03 0.04 0.04 0.05 0.05 0.04 0.04 0.03 0.04 0.04 0.05 0.05 0.05 0.05 0.05 0.06 0.06 0.07 0.08 0.07 0.06 0.06 0.05 0.05 0.05 0.05
0.05 0.05 0.05 0.05 0.04 0.04 0.04 0.04 0.03 0.03 0.03 0.03 0.03 0.03 0.04 0.04 0.05 0.05 0.04 0.04 0.04 0.05 0.06 0.06 0.06 0.07 0.06 0.05 0.05 0.06 0.06 0.05 0.05 0.05 0.05 0.05 0.04 0.05
MSLP
1014.05 1014.07 1014.04 1013.93 1013.73 1013.44 1013.07 1012.65 1012.18 1011.68 1011.18 1010.67 1010.14 1009.61 1009.05 1008.47 1007.87 1007.27 1006.68 1006.12 1005.62 1005.19 1004.84 1004.55 1004.32 1004.11 1003.90 1003.68 1003.44 1003.20 1002.97 1002.80 1002.72 1002.76 1002.96 1003.33 1003.85 1004.50
1013.51 1013.55 1013.52 1013.41 1013.21 1012.93 1012.58 1012.18 1011.73 1011.27 1010.79 1010.29 1009.76 1009.21 1008.61 1007.96 1007.28 1006.58 1005.89 1005.24 1004.65 1004.16 1003.76 1003.45 1003.21 1003.02 1002.83 1002.64 1002.43 1002.19 1001.97 1001.78 1001.67 1001.68 1001.84 1002.16 1002.65 1003.28
1012.87 1012.90 1012.87 1012.76 1012.58 1012.31 1011.99 1011.63 1011.24 1010.82 1010.39 1009.93 1009.42 1008.86 1008.23 1007.53 1006.78 1005.98 1005.19 1004.44 1003.76 1003.19 1002.73 1002.39 1002.13 1001.94 1001.77 1001.61 1001.42 1001.22 1001.01 1000.84 1000.73 1000.74 1000.88 1001.19 1001.65 1002.27
1012.14 1012.17 1012.14 1012.04 1011.86 1011.63 1011.35 1011.04 1010.71 1010.36 1009.99 1009.58 1009.11 1008.56 1007.92 1007.18 1006.36 1005.49 1004.60 1003.75 1002.99 1002.34 1001.82 1001.43 1001.15 1000.95 1000.79 1000.65 1000.50 1000.34 1000.17 1000.03 999.96 999.98 1000.13 1000.44 1000.91 1001.52
1011.38 1011.40 1011.36 1011.26 1011.10 1010.89 1010.66 1010.41 1010.15 1009.87 1009.57 1009.22 1008.80 1008.27 1007.62 1006.86 1005.99 1005.06 1004.10 1003.18 1002.34 1001.62 1001.04 1000.60 1000.30 1000.09 999.95 999.83 999.72 999.60 999.49 999.40 999.37 999.43 999.62 999.95 1000.43 1001.04
1010.60 1010.61 1010.56 1010.46 1010.31 1010.13 1009.94 1009.75 1009.55 1009.35 1009.11 1008.82 1008.43 1007.93 1007.29 1006.51 1005.62 1004.65 1003.65 1002.67 1001.78 1001.01 1000.39 999.92 999.60 999.38 999.25 999.16 999.08 999.02 998.96 998.94 998.97 999.09 999.31 999.68 1000.17 1000.79
1009.81 1009.80 1009.74 1009.63 1009.49 1009.34 1009.19 1009.04 1008.90 1008.75 1008.57 1008.32 1007.97 1007.48 1006.85 1006.07 1005.17 1004.19 1003.17 1002.17 1001.26 1000.47 999.83 999.35 999.02 998.81 998.69 998.63 998.59 998.58 998.58 998.62 998.72 998.89 999.17 999.56 1000.07 1000.69
1009.02 1008.98 1008.90 1008.79 1008.66 1008.53 1008.41 1008.30 1008.20 1008.08 1007.93 1007.70 1007.36 1006.89 1006.26 1005.49 1004.59 1003.61 1002.60 1001.61 1000.71 999.94 999.31 998.85 998.53 998.34 998.25 998.22 998.23 998.26 998.32 998.42 998.58 998.80 999.12 999.54 1000.05 1000.66
1008.21 1008.15 1008.05 1007.94 1007.82 1007.71 1007.61 1007.52 1007.44 1007.34 1007.20 1006.97 1006.62 1006.14 1005.50 1004.73 1003.84 1002.88 1001.90 1000.96 1000.10 999.37 998.80 998.38 998.11 997.95 997.90 997.91 997.96 998.05 998.16 998.31 998.51 998.78 999.12 999.55 1000.06 1000.64
1007.39 1007.31 1007.21 1007.10 1007.00 1006.90 1006.83 1006.76 1006.68 1006.57 1006.40 1006.14 1005.76 1005.24 1004.59 1003.81 1002.93 1002.00 1001.07 1000.19 999.42 998.77 998.27 997.93 997.73 997.64 997.64 997.70 997.81 997.94 998.10 998.29 998.53 998.82 999.17 999.59 1000.08 1000.62
1006.59 1006.50 1006.40 1006.31 1006.24 1006.17 1006.11 1006.04 1005.95 1005.81 1005.60 1005.28 1004.84 1004.27 1003.58 1002.79 1001.92 1001.03 1000.17 999.37 998.69 998.15 997.76 997.52 997.41 997.41 997.49 997.62 997.78 997.96 998.16 998.38 998.64 998.93 999.27 999.67 1000.12 1000.61
1005.84 1005.75 1005.69 1005.63 1005.59 1005.55 1005.51 1005.43 1005.31 1005.13 1004.85 1004.45 1003.94 1003.30 1002.56 1001.75 1000.89 1000.05 999.25 998.56 997.99 997.58 997.32 997.20 997.21 997.31 997.47 997.67 997.89 998.12 998.35 998.60 998.86 999.15 999.47 999.83 1000.22 1000.65
1005.19 1005.13 1005.10 1005.09 1005.09 1005.08 1005.04 1004.96 1004.80 1004.55 1004.19 1003.72 1003.12 1002.41 1001.62 1000.78 999.94 999.15 998.43 997.85 997.41 997.14 997.02 997.03 997.16 997.36 997.62 997.89 998.17 998.44 998.70 998.95 999.21 999.48 999.76 1000.07 1000.40 1000.76
1004.68 1004.66 1004.67 1004.71 1004.75 1004.76 1004.73 1004.62 1004.42 1004.11 1003.67 1003.10 1002.42 1001.65 1000.82 999.97 999.16 998.42 997.80 997.33 997.03 996.90 996.91 997.06 997.30 997.61 997.95 998.28 998.61 998.90 999.17 999.42 999.66 999.89 1000.13 1000.38 1000.65 1000.93
1004.32 1004.35 1004.41 1004.48 1004.55 1004.58 1004.54 1004.41 1004.16 1003.78 1003.27 1002.63 1001.89 1001.07 1000.22 999.39 998.62 997.96 997.44 997.09 996.91 996.91 997.05 997.31 997.65 998.04 998.44 998.82 999.16 999.46 999.72 999.95 1000.15 1000.33 1000.52 1000.70 1000.90 1001.11
1004.13 1004.19 1004.28 1004.38 1004.46 1004.49 1004.43 1004.27 1003.97 1003.54 1002.97 1002.29 1001.51 1000.68 999.85 999.06 998.36 997.79 997.38 997.15 997.10 997.21 997.45 997.79 998.20 998.63 999.05 999.43 999.76 1000.04 1000.26 1000.44 1000.59 1000.71 1000.82 1000.94 1001.06 1001.19
1004.07 1004.15 1004.25 1004.36 1004.44 1004.45 1004.36 1004.16 1003.83 1003.36 1002.76 1002.07 1001.30 1000.50 999.72 999.01 998.40 997.94 997.65 997.52 997.57 997.77 998.08 998.47 998.89 999.32 999.72 1000.06 1000.35 1000.56 1000.71 1000.82 1000.88 1000.93 1000.96 1001.00 1001.05 1001.11
1004.10 1004.18 1004.28 1004.37 1004.42 1004.40 1004.28 1004.05 1003.69 1003.21 1002.63 1001.95 1001.23 1000.51 999.82 999.22 998.73 998.39 998.20 998.18 998.31 998.55 998.89 999.27 999.67 1000.05 1000.38 1000.64 1000.83 1000.94 1001.00 1001.00 1000.97 1000.93 1000.88 1000.83 1000.80 1000.78
1004.18 1004.25 1004.32 1004.38 1004.39 1004.33 1004.18 1003.93 1003.57 1003.10 1002.56 1001.95 1001.31 1000.70 1000.13 999.65 999.29 999.07 998.98 999.03 999.21 999.47 999.79 1000.12 1000.45 1000.73 1000.96 1001.10 1001.17 1001.16 1001.10 1000.99 1000.86 1000.71 1000.56 1000.43 1000.32 1000.23
1004.27 1004.31 1004.35 1004.37 1004.34 1004.24 1004.07 1003.81 1003.47 1003.05 1002.57 1002.05 1001.53 1001.04 1000.61 1000.27 1000.03 999.91 999.90 1000.00 1000.18 1000.42 1000.69 1000.95 1001.17 1001.33 1001.42 1001.43 1001.36 1001.23 1001.04 1000.82 1000.57 1000.33 1000.09 999.88 999.69 999.52
1004.35 1004.36 1004.36 1004.34 1004.27 1004.15 1003.97 1003.72 1003.42 1003.06 1002.67 1002.27 1001.87 1001.51 1001.22 1000.99 1000.86 1000.82 1000.86 1000.97 1001.14 1001.32 1001.51 1001.67 1001.77 1001.80 1001.76 1001.64 1001.44 1001.18 1000.88 1000.56 1000.22 999.89 999.57 999.28 999.02 998.78
1004.39 1004.37 1004.34 1004.29 1004.21 1004.08 1003.91 1003.69 1003.44 1003.16 1002.87 1002.58 1002.31 1002.07 1001.89 1001.76 1001.70 1001.70 1001.76 1001.85 1001.97 1002.09 1002.18 1002.23 1002.22 1002.13 1001.97 1001.74 1001.44 1001.09 1000.71 1000.31 999.90 999.50 999.12 998.77 998.44 998.14
1004.38 1004.35 1004.31 1004.25 1004.16 1004.04 1003.90 1003.73 1003.55 1003.35 1003.16 1002.97 1002.80 1002.66 1002.55 1002.49 1002.46 1002.47 1002.51 1002.57 1002.62 1002.65 1002.65 1002.60 1002.50 1002.32 1002.08 1001.78 1001.42 1001.02 1000.59 1000.15 999.70 999.26 998.83 998.43 998.04 997.68
Thickness
5496 5497 5498 5498 5498 5500 5502 5502 5504 5510 5518 5521 5522 5524 5523 5525 5527 5529 5531 5533 5534 5535 5537 5538 5538 5539 5540 5540 5539 5540 5540 5540 5539 5537 5536 5536 5535 5536
5488 5488 5488 5488 5489 5490 5491 5492 5493 5496 5502 5507 5508 5510 5511 5512 5514 5516 5520 5522 5523 5525 5528 5529 5530 5531 5531 5531 5531 5532 5531 5531 5530 5529 5528 5528 5528 5529
5478 5479 5480 5480 5480 5481 5482 5482 5483 5485 5488 5494 5495 5497 5498 5499 5502 5504 5508 5511 5513 5516 5518 5520 5522 5523 5523 5522 5522 5522 5522 5522 5522 5521 5520 5521 5521 5522
5470 5471 5471 5472 5473 5473 5473 5473 5475 5477 5477 5481 5485 5485 5487 5489 5491 5494 5497 5500 5503 5506 5509 5511 5513 5514 5514 5513 5513 5513 5513 5513 5512 5511 5512 5513 5514 5514
5462 5463 5464 5464 5465 5465 5465 5466 5467 5468 5469 5471 5474 5475 5476 5478 5480 5483 5486 5489 5492 5495 5499 5502 5503 5504 5505 5504 5504 5504 5504 5504 5503 5503 5503 5504 5505 5506
5455 5456 5456 5456 5457 5457 5458 5458 5459 5459 5460 5461 5463 5465 5466 5468 5469 5472 5476 5479 5482 5485 5488 5491 5493 5494 5494 5495 5495 5495 5495 5495 5495 5495 5495 5496 5496 5497
5446 5447 5448 5448 5450 5449 5450 5450 5450 5451 5451 5452 5453 5455 5457 5458 5460 5462 5465 5469 5472 5474 5477 5481 5483 5485 5485 5485 5486 5486 5486 5486 5487 5487 5487 5488 5488 5489
5438 5439 5439 5440 5441 5442 5443 5443 5443 5442 5442 5442 5444 5446 5448 5449 5450 5452 5454 5457 5461 5464 5466 5470 5473 5474 5475 5476 5477 5477 5477 5478 5479 5479 5480 5480 5480 5482
5430 5431 5432 5432 5432 5433 5434 5435 5435 5434 5434 5434 5434 5436 5437 5439 5441 5443 5444 5446 5449 5452 5455 5459 5461 5463 5465 5466 5467 5469 5470 5470 5471 5472 5472 5473 5474 5475
5422 5422 5423 5424 5424 5425 5426 5426 5426 5425 5425 5426 5427 5427 5428 5430 5432 5434 5435 5437 5440 5442 5445 5448 5451 5453 5456 5457 5459 5461 5462 5462 5463 5464 5465 5466 5467 5468
5413 5414 5415 5416 5418 5419 5419 5419 5418 5418 5418 5418 5419 5420 5422 5423 5424 5424 5426 5429 5432 5434 5436 5439 5441 5443 5446 5449 5451 5453 5454 5455 5455 5457 5458 5459 5460 5462
5406 5407 5408 5410 5411 5411 5411 5411 5411 5411 5410 5411 5412 5413 5414 5415 5416 5417 5419 5422 5424 5426 5428 5430 5433 5434 5438 5441 5442 5444 5445 5447 5448 5449 5451 5453 5454 5455
5399 5400 5401 5402 5403 5404 5404 5404 5404 5404 5404 5404 5404 5405 5406 5407 5409 5410 5412 5414 5417 5419 5421 5422 5424 5426 5428 5431 5434 5436 5438 5439 5441 5442 5444 5447 5448 5449
5392 5393 5394 5394 5395 5396 5396 5397 5397 5397 5397 5397 5397 5398 5398 5400 5402 5404 5407 5409 5411 5413 5414 5416 5417 5419 5421 5422 5425 5428 5430 5432 5434 5436 5438 5440 5442 5443
5385 5387 5387 5387 5388 5388 5388 5388 5389 5389 5389 5389 5390 5391 5392 5393 5395 5398 5400 5402 5404 5406 5408 5410 5412 5413 5415 5417 5418 5420 5423 5425 5428 5430 5432 5434 5435 5436
5378 5378 5379 5379 5379 5380 5380 5380 5380 5381 5381 5382 5383 5383 5385 5387 5389 5391 5393 5395 5397 5399 5401 5403 5405 5407 5409 5411 5413 5414 5416 5419 5422 5424 5426 5428 5429 5430
5372 5372 5371 5371 5371 5371 5372 5372 5373 5374 5374 5375 5376 5377 5378 5381 5382 5384 5386 5388 5390 5392 5394 5395 5397 5400 5402 5405 5407 5409 5411 5413 5416 5419 5421 5423 5424 5425
5366 5365 5365 5364 5364 5364 5364 5365 5366 5367 5368 5369 5371 5372 5373 5375 5376 5378 5380 5382 5384 5386 5388 5389 5391 5394 5396 5399 5401 5404 5406 5408 5411 5413 5415 5416 5419 5420
5359 5359 5358 5358 5358 5358 5358 5359 5360 5361 5362 5364 5366 5367 5369 5371 5372 5374 5375 5377 5379 5380 5382 5384 5386 5389 5393 5395 5395 5398 5401 5403 5405 5407 5408 5410 5413 5415
5353 5353 5352 5352 5353 5353 5354 5354 5356 5357 5358 5359 5361 5362 5363 5366 5368 5370 5371 5372 5374 5375 5377 5379 5382 5384 5387 5389 5390 5392 5395 5398 5401 5402 5403 5405 5407 5410
5347 5348 5348 5348 5348 5349 5349 5350 5352 5354 5355 5356 5357 5358 5359 5361 5364 5365 5366 5368 5370 5371 5374 5375 5378 5380 5381 5384 5385 5387 5390 5393 5396 5397 5399 5400 5401 5403
5342 5343 5343 5344 5344 5345 5346 5347 5349 5351 5352 5353 5354 5355 5356 5358 5360 5362 5363 5364 5366 5368 5370 5371 5373 5376 5378 5380 5381 5382 5384 5387 5390 5393 5394 5396 5396 5397
5337 5338 5339 5340 5341 5342 5344 5345 5347 5349 5350 5351 5352 5353 5354 5356 5357 5359 5360 5362 5363 5365 5367 5367 5369 5371 5373 5375 5376 5378 5379 5381 5384 5386 5388 5390 5391 5393